718  
ASUS43 KEAX 240915  
RWREAX  
 
WEATHER ROUNDUP FOR EASTERN KANSAS AND NORTHWEST MISSOURI  
NATIONAL WEATHER SERVICE KANSAS CITY/PLEASANT HILL MO  
300 AM CST SAT FEB 24 2024  
 
KSZ040-057-103>105-MOZ028-029-037-043-241000-   
..KANSAS CITY METROPOLITAN AREA
 
 
 
CITY SKY/WX TMP DP RH WIND PRES REMARKS
 
K.C. INTL CLEAR 33 26 75 N8 30.05R WCI 26  
K.C. DOWNTOWN CLEAR 39 28 64 N9 30.05R WCI 33  
LEES SUMMIT CLEAR 39 28 64 N14 30.04R WCI 31  
OLATHE - IXD CLEAR 37 27 67 NW9 30.06R WCI 30  
OLATHE - OJC CLEAR 39 28 64 NW8 30.05R WCI 33  
LAWRENCE CLEAR 34 26 72 N6 30.08R WCI 29  
 

 
 
MOZ001>008-011>017-020>025-030>033-038>040-044>046-053-054-241000-   
..NORTHERN AND CENTRAL MISSOURI
 
 
 
CITY SKY/WX TMP DP RH WIND PRES REMARKS
 
ST. JOSEPH CLEAR 29 23 78 N8 30.07R WCI 21  
MOSBY CLEAR 34 27 75 N5 30.06R WCI 30  
HARRISONVILLE CLEAR 39 30 70 N8 30.06S WCI 34  
WHITEMAN AFB CLEAR 37 27 68 N8 30.01R WCI 31  
CLINTON CLEAR 37 28 70 N8 30.02R WCI 31  
SEDALIA CLEAR 37 27 67 N10 30.02R WCI 30  
MARSHALL CLEAR 36 28 75 N8 30.03R WCI 29  
CHILLICOTHE N/A 34 25 69 N3 30.05R  
MOBERLY PTCLDY 32 27 80 N6 30.01R WCI 26  
KIRKSVILLE CLEAR 29 24 82 N7 30.01R WCI 22  
 

 
 
MOZ041-047>049-056>058-063>065-088>090-097-241000-   
..EASTERN AND SOUTHERN MISSOURI
 
 
 
CITY SKY/WX TMP DP RH WIND PRES REMARKS
 
ST. LOUIS INTL PTCLDY 41 28 60 NW13 29.93R WCI 34  
SPIRIT OF STL PTCLDY 40 29 64 N10 29.93R WCI 33  
COLUMBIA CLEAR 36 28 73 N12 29.99R WCI 28  
JEFFERSON CITY CLEAR 42 27 55 N9 29.99R  
MEXICO MOCLDY 34 28 80 N13 29.99R WCI 25  
HANNIBAL CLEAR 34 27 75 N6 30.00R WCI 29  
ROLLA CLEAR 41 29 62 N12 29.95R WCI 34  
LEBANON CLEAR N/A N/A N/A NW7 29.97R  
OSAGE BEACH CLEAR 42 29 59 N7 29.98R  
SPRINGFIELD CLEAR 42 28 57 NW9 29.98R  
BRANSON CLEAR 48 27 43 NW7 29.98R  
JOPLIN CLEAR 42 27 55 NW5 30.04R  
WEST PLAINS CLEAR 47 27 45 NW8 29.93R  
SIKESTON CLEAR 41 34 75 CALM 29.86S  
 

 
 
IAZ060-094-KSZ022-034>040-054-083-096-NEZ052-066-093-241000-    
..KANSAS...SOUTHEAST NEBRASKA AND IOWA
 
 
 
CITY SKY/WX TMP DP RH WIND PRES REMARKS
 
TOPEKA CLEAR 37 27 67 NW3 30.08R  
MANHATTAN CLEAR 34 27 75 NE6 30.08R WCI 29  
EMPORIA CLEAR 37 27 67 NW6 30.06S WCI 32  
OTTAWA CLEAR 37 28 70 NW6 30.05R WCI 33  
CHANUTE CLEAR 43 27 53 N5 30.07R  
SALINA CLEAR 35 23 61 CALM 30.08S  
WICHITA CLEAR 39 26 59 NW7 30.07S WCI 34  
OMAHA CLEAR 25 23 92 NE6 30.07S WCI 18  
LINCOLN CLEAR 28 23 81 W3 30.09R  
FALLS CITY CLEAR 29 24 82 NW6 30.08R WCI 23  
LAMONI CLEAR 26 22 84 W6 30.03R WCI 19  
DES MOINES CLOUDY 34 24 67 NE9 30.04R WCI 27  
 

 
 
 
 
CLICK HERE TO GO TO PREVIOUS BULLETINS.

The Nexlab MO Page
The Nexlab KS Page Main Text Page